FW2904 Weather Reports


time (UTC)temp
C
wind
direction
speed
KPH
gust
KPH
rain 1hr
cm
rain 24hr
cm
rain mn
cm
humidity
%
barometer
mb
20260504150908 10 52 14.5 32.2 0.00 0.00 0.00 49 1017.8
20260504150406 10 53 14.5 30.6 0.00 0.00 0.00 50 1017.9
20260504140909 10 39 12.9 27.4 0.00 0.00 0.00 52 1016.6
20260504140406 10 30 14.5 33.8 0.00 0.00 0.00 51 1016.2
20260504110348 4 47 1.6 8.0 0.00 0.00 0.00 67 1013.3
20260504100344 4 49 0.0 1.6 0.00 0.00 0.00 66 1013.3
20260504081846 4 49 0.0 1.6 0.00 0.00 0.00 67 1013.9
20260504081840 4 49 0.0 1.6 0.00 0.00 0.00 68 1013.8
20260504081510 4 49 0.0 0.0 0.00 0.00 0.00 66 1013.9
20260504080340 4 49 0.0 3.2 0.00 0.00 0.00 66 1014.0
20260504070335 5 49 0.0 3.2 0.00 0.00 0.00 65 1014.2
20260504050330 8 49 1.6 6.4 0.00 0.00 0.00 53 1015.0
20260504045828 8 49 0.0 6.4 0.00 0.00 0.00 53 1015.0
20260504045330 8 49 0.0 4.8 0.00 0.00 0.00 52 1015.1
20260504044830 9 49 0.0 4.8 0.00 0.00 0.00 53 1015.1
20260504044334 10 49 1.6 4.8 0.00 0.00 0.00 51 1015.1
20260504044330 10 49 0.0 1.6 0.00 0.00 0.00 51 1015.1
20260504043330 10 49 3.2 4.8 0.00 0.00 0.00 51 1015.2
20260504042829 10 49 3.2 6.4 0.00 0.00 0.00 51 1015.2
20260504042501 10 49 3.2 4.8 0.00 0.00 0.00 50 1015.3
20260504042327 10 49 3.2 8.0 0.00 0.00 0.00 51 1015.2
20260504041832 10 49 3.2 4.8 0.00 0.00 0.00 51 1015.3
20260504041826 10 49 3.2 8.0 0.00 0.00 0.00 51 1015.3
20260504040328 10 49 3.2 4.8 0.00 0.00 0.00 50 1015.3
20260504035826 11 49 1.6 3.2 0.00 0.00 0.00 49 1015.3
20260504035330 11 49 1.6 4.8 0.00 0.00 0.00 48 1015.3
20260504034835 12 49 3.2 6.4 0.00 0.00 0.00 46 1015.3
20260504034826 11 49 1.6 4.8 0.00 0.00 0.00 47 1015.3
20260504034326 11 49 1.6 4.8 0.00 0.00 0.00 46 1015.3
20260504033326 12 49 4.8 8.0 0.00 0.00 0.00 45 1015.3
20260504032825 12 49 6.4 9.7 0.00 0.00 0.00 45 1015.3
20260504032324 12 49 4.8 9.7 0.00 0.00 0.00 45 1015.2
20260504031831 12 49 4.8 9.7 0.00 0.00 0.00 44 1015.1
20260504031826 12 49 4.8 8.0 0.00 0.00 0.00 44 1015.2
20260504030824 12 49 4.8 9.7 0.00 0.00 0.00 43 1015.1
20260504030326 12 49 4.8 6.4 0.00 0.00 0.00 43 1015.2
20260504025833 13 49 3.2 8.0 0.00 0.00 0.00 42 1015.3
20260504025826 12 49 4.8 6.4 0.00 0.00 0.00 43 1015.2
20260504025456 13 49 3.2 8.0 0.00 0.00 0.00 42 1015.3
20260504024323 13 49 3.2 6.4 0.00 0.00 0.00 42 1015.3
20260504023821 13 49 3.2 6.4 0.00 0.00 0.00 41 1015.2
20260504023321 13 49 3.2 6.4 0.00 0.00 0.00 40 1015.2
20260504022823 14 49 3.2 6.4 0.00 0.00 0.00 39 1015.2
20260504022323 14 49 3.2 6.4 0.00 0.00 0.00 38 1015.1
20260504021822 15 49 3.2 6.4 0.00 0.00 0.00 37 1015.2
20260504021328 15 49 3.2 4.8 0.00 0.00 0.00 34 1015.2
20260504021322 15 49 3.2 4.8 0.00 0.00 0.00 35 1015.2
20260504020322 16 49 3.2 4.8 0.00 0.00 0.00 33 1015.1
20260504015823 16 49 3.2 4.8 0.00 0.00 0.00 31 1015.1
20260504015322 16 49 3.2 6.4 0.00 0.00 0.00 31 1015.1
20260504014822 17 49 3.2 6.4 0.00 0.00 0.00 30 1015.1
20260504014320 17 49 4.8 8.0 0.00 0.00 0.00 29 1015.1
20260504013820 17 49 3.2 8.0 0.00 0.00 0.00 29 1015.1
20260504013322 17 49 4.8 8.0 0.00 0.00 0.00 29 1015.1
20260504012825 18 49 4.8 11.3 0.00 0.00 0.00 27 1015.1
20260504012819 18 49 4.8 11.3 0.00 0.00 0.00 28 1015.0
20260504011817 18 49 6.4 11.3 0.00 0.00 0.00 26 1015.1
20260504011322 19 48 6.4 11.3 0.00 0.00 0.00 26 1015.1
20260504010823 19 48 6.4 16.1 0.00 0.00 0.00 26 1015.1
20260504010817 19 48 6.4 16.1 0.00 0.00 0.00 26 1015.1
20260504005818 20 46 6.4 16.1 0.00 0.00 0.00 25 1015.2
20260504005316 20 46 6.4 16.1 0.00 0.00 0.00 25 1015.2
20260504004818 20 45 6.4 16.1 0.00 0.00 0.00 24 1015.2
20260504004316 20 44 6.4 17.7 0.00 0.00 0.00 24 1015.2
20260504003814 20 44 6.4 17.7 0.00 0.00 0.00 24 1015.2
20260504003314 21 41 4.8 11.3 0.00 0.00 0.00 24 1015.2
20260504002820 21 37 3.2 14.5 0.00 0.00 0.00 25 1015.3
20260504002816 21 38 4.8 14.5 0.00 0.00 0.00 24 1015.3
20260504002446 20 35 3.2 8.0 0.00 0.00 0.00 26 1015.4
20260504001816 20 35 3.2 8.0 0.00 0.00 0.00 23 1015.4
20260504001445 20 35 6.4 20.9 0.00 0.00 0.00 25 1015.4
20260504000948 20 35 9.7 20.9 0.00 0.00 0.00 23 1015.5
20260503235812 20 22 8.0 20.9 0.00 0.00 0.00 24 1015.5
20260503235314 20 49 4.8 11.3 0.00 0.00 0.00 23 1015.7
20260503234814 20 50 3.2 9.7 0.00 0.00 0.00 24 1015.7
20260503234311 20 50 3.2 8.0 0.00 0.00 0.00 24 1015.7
20260503233811 20 50 6.4 16.1 0.00 0.00 0.00 24 1015.7
20260503233311 20 50 8.0 19.3 0.00 0.00 0.00 22 1015.7
20260503232810 20 46 8.0 19.3 0.00 0.00 0.00 22 1015.7
20260503232309 19 46 9.7 22.5 0.00 0.00 0.00 24 1015.8
20260503231815 18 17 6.4 16.1 0.00 0.00 0.00 22 1015.9
20260503231807 19 43 8.0 22.5 0.00 0.00 0.00 24 1015.8
20260503230811 18 20 8.0 27.4 0.00 0.00 0.00 24 1016.0
20260503230309 18 83 8.0 27.4 0.00 0.00 0.00 30 1016.1
20260503225811 19 88 8.0 19.3 0.00 0.00 0.00 29 1016.1
20260503225310 19 89 11.3 19.3 0.00 0.00 0.00 29 1016.1
20260503224816 20 74 6.4 16.1 0.00 0.00 0.00 29 1016.1
20260503224810 20 85 9.7 17.7 0.00 0.00 0.00 29 1016.1
20260503223807 19 0 4.8 12.9 0.00 0.00 0.00 29 1016.1
20260503223314 18 355 4.8 12.9 0.00 0.00 0.00 28 1016.4
20260503223309 19 0 3.2 12.9 0.00 0.00 0.00 28 1016.2
20260503222309 19 355 8.0 17.7 0.00 0.00 0.00 27 1016.5
20260503221808 19 355 9.7 24.1 0.00 0.00 0.00 27 1016.7
20260503221314 20 26 14.5 25.7 0.00 0.00 0.00 26 1016.1
20260503221310 20 53 11.3 25.7 0.00 0.00 0.00 27 1016.2
20260503220313 20 288 12.9 33.8 0.00 0.00 0.00 19 1016.0
20260503220307 21 285 12.9 25.7 0.00 0.00 0.00 18 1015.9
20260503215942 19 315 20.9 54.7 0.00 0.00 0.00 19 1016.2
20260503214809 19 28 19.3 54.7 0.00 0.00 0.00 20 1016.5
20260503214313 19 293 6.4 17.7 0.00 0.00 0.00 22 1016.4
20260503214309 20 344 9.7 46.7 0.00 0.00 0.00 20 1016.2
20260503213310 19 306 9.7 24.1 0.00 0.00 0.00 22 1016.6
20260503212810 19 309 17.7 49.9 0.00 0.00 0.00 22 1016.6
20260503212314 19 329 12.9 24.1 0.00 0.00 0.00 23 1016.7
20260503212308 19 307 19.3 49.9 0.00 0.00 0.00 21 1016.9
20260503211314 18 343 16.1 43.5 0.00 0.00 0.00 24 1016.9
20260503211310 18 347 12.9 25.7 0.00 0.00 0.00 24 1016.8
20260503210807 18 22 16.1 43.5 0.00 0.00 0.00 25 1016.8
20260503205807 20 342 12.9 37.0 0.00 0.00 0.00 22 1016.9
20260503205307 20 325 11.3 25.7 0.00 0.00 0.00 21 1016.7
20260503204809 20 0 14.5 49.9 0.00 0.00 0.00 22 1016.8
20260503204309 19 324 16.1 49.9 0.00 0.00 0.00 22 1016.9
20260503203806 20 12 11.3 24.1 0.00 0.00 0.00 21 1017.1
20260503203311 21 330 14.5 30.6 0.00 0.00 0.00 20 1016.9
20260503203305 20 343 12.9 30.6 0.00 0.00 0.00 21 1016.9
20260503202940 22 337 11.3 29.0 0.00 0.00 0.00 19 1017.1
20260503201813 22 300 14.5 30.6 0.00 0.00 0.00 20 1017.2
20260503201805 22 286 11.3 27.4 0.00 0.00 0.00 20 1016.9
20260503201306 22 281 12.9 27.4 0.00 0.00 0.00 19 1016.9
20260503200305 22 279 14.5 30.6 0.00 0.00 0.00 20 1017.1
20260503195806 22 293 11.3 25.7 0.00 0.00 0.00 21 1017.2
20260503195305 21 277 9.7 22.5 0.00 0.00 0.00 22 1017.2
20260503194807 21 279 8.0 20.9 0.00 0.00 0.00 23 1017.3
20260503194306 20 277 8.0 25.7 0.00 0.00 0.00 24 1017.4
20260503193805 20 278 9.7 25.7 0.00 0.00 0.00 24 1017.5
20260503193307 21 277 9.7 22.5 0.00 0.00 0.00 24 1017.6
20260503192805 21 278 6.4 20.9 0.00 0.00 0.00 24 1017.8
20260503192305 20 275 4.8 17.7 0.00 0.00 0.00 26 1017.9
20260503191807 20 275 8.0 20.9 0.00 0.00 0.00 26 1018.1
20260503191305 20 274 8.0 20.9 0.00 0.00 0.00 25 1018.2
20260503190805 20 268 6.4 12.9 0.00 0.00 0.00 28 1018.3
20260503190305 20 268 6.4 17.7 0.00 0.00 0.00 27 1018.5
20260503185805 20 268 8.0 17.7 0.00 0.00 0.00 28 1018.6
20260503185306 20 266 8.0 17.7 0.00 0.00 0.00 29 1018.8
20260503184805 19 265 9.7 20.9 0.00 0.00 0.00 29 1018.8
20260503184309 19 265 9.7 20.9 0.00 0.00 0.00 29 1018.9
20260503183807 19 263 9.7 22.5 0.00 0.00 0.00 30 1018.9
20260503183305 18 263 9.7 22.5 0.00 0.00 0.00 31 1018.9
20260503182805 18 263 6.4 16.1 0.00 0.00 0.00 31 1019.0
20260503182307 18 264 8.0 16.1 0.00 0.00 0.00 33 1019.3
20260503181807 18 264 8.0 29.0 0.00 0.00 0.00 32 1019.4
20260503181303 18 264 6.4 29.0 0.00 0.00 0.00 34 1019.4
20260503180803 17 304 9.7 20.9 0.00 0.00 0.00 32 1019.5
20260503180303 17 304 8.0 20.9 0.00 0.00 0.00 34 1019.6
20260503175804 17 338 8.0 16.1 0.00 0.00 0.00 33 1019.8
20260503175307 17 336 6.4 16.1 0.00 0.00 0.00 31 1019.9
20260503175301 17 336 6.4 16.1 0.00 0.00 0.00 32 1019.9
20260503174302 17 339 6.4 14.5 0.00 0.00 0.00 34 1020.0
20260503173802 17 339 6.4 14.5 0.00 0.00 0.00 35 1020.1
20260503173303 17 339 6.4 17.7 0.00 0.00 0.00 37 1020.2
20260503172806 16 339 6.4 14.5 0.00 0.00 0.00 36 1020.3
20260503172802 17 339 6.4 17.7 0.00 0.00 0.00 36 1020.2
20260503171801 16 339 6.4 14.5 0.00 0.00 0.00 38 1020.3
20260503171301 16 339 6.4 16.1 0.00 0.00 0.00 38 1020.3
20260503170816 16 339 6.4 17.7 0.00 0.00 0.00 37 1020.3
20260503170801 15 339 8.0 17.7 0.00 0.00 0.00 39 1020.3